Flag for U.S.A. Weather past 2 weeks in New Bedford, Massachusetts, U.S.A.

Now
64 °F

Passing clouds.


Feels Like: 64 °F
Forecast: 60 / 79 °F
Wind: No wind

Location: New Bedford Regional Airport

Current Time: Jul 25, 2014 at 12:19:44 AM

Latest Report: Jul 24, 2014 at 11:53 PM


Visibility: 10 mi

Pressure: 29.88 "Hg

Humidity: 94%

Dew point: 62 °F

Location of New BedfordLocation

Historic Weather in New Bedford — Graph

°F

New Bedford temperature yesterday

Maximum temperature yesterday: 77 °F (at 8:53 AM)
Minimum temperature yesterday: 66 °F (at 9:53 PM)
Average temperature yesterday: 72 °F

Past Weeks' High & Low Weather Summary

 TemperatureHumidityPressure
High85 °F (Jul 22, 12:53 PM)100% (Jul 12, 5:53 AM)30.27 "Hg (Jul 12, 5:53 AM)
Low58 °F (Jul 12, 4:53 AM)43% (Jul 12, 11:53 AM)29.74 "Hg (Jul 24, 2:53 AM)
Average71 °F80%30.03 "Hg
* Reported Jul 9 10:53 PM — Jul 24 10:53 PM, New Bedford, Weather by CustomWeather, © 2014

Note: Actual official high and low records may vary slightly from our data, if they occured in-between our weather recording intervals... More about our weather records

Advertising

New Bedford weather history for previous 24 hours

 ConditionsComfort  
Time TempWeatherWind HumidityBarometerVisibility
10:53 PM
Jul 24
67 °FMostly cloudy.No wind87%29.89 "Hg10 mi
9:53 PM66 °FOvercast.3 mph87%29.87 "Hg10 mi
8:53 PM67 °FOvercast.No wind87%29.85 "Hg10 mi
7:53 PM68 °FSunny.3 mph82%29.84 "Hg10 mi
6:53 PM71 °FSunny.6 mph76%29.82 "Hg10 mi
5:53 PM71 °FSunny.6 mph73%29.83 "Hg10 mi
4:53 PM73 °FSunny.8 mph71%29.81 "Hg10 mi
3:53 PM75 °FPassing clouds.7 mph69%29.81 "Hg10 mi
2:53 PM75 °FPartly sunny.7 mph69%29.81 "Hg10 mi
1:53 PM76 °FBroken clouds.N/A69%29.81 "Hg10 mi
12:53 PM74 °FPartly sunny.9 mph74%29.82 "Hg10 mi
12:04 PM72 °FMostly cloudy.12 mph78%29.82 "Hg10 mi
12:00 PM72 °FMostly cloudy.9 mph78%29.82 "Hg1 mi
10:53 AMN/AMostly cloudy.6 mphN/A29.80 "HgN/A
9:53 AM77 °FMostly cloudy.No wind79%29.79 "Hg10 mi
8:53 AM77 °FPassing clouds.8 mph79%29.77 "Hg10 mi
7:53 AM75 °FSunny.5 mph85%29.76 "Hg10 mi
6:53 AM71 °FPartly sunny.No wind93%29.77 "Hg10 mi
5:53 AM70 °FPassing clouds.No wind93%29.75 "Hg10 mi
4:53 AM70 °FMostly cloudy.No wind93%29.75 "Hg10 mi
3:53 AM70 °FClear.3 mph93%29.75 "Hg10 mi
2:53 AM70 °FClear.No wind93%29.74 "Hg8 mi
1:53 AM71 °FClear.7 mph93%29.75 "Hg10 mi
12:53 AM71 °FClear.5 mph93%29.75 "Hg10 mi
Weather by CustomWeather, © 2014

See weather overviewHow to use our weather pages